• Join FlightAware (Why Join?)
  • Login
  • US Flag 
01:12AM EDT


 

Airport Tracker/Info


-or-


 

Live Flight TrackerFlight Track Log ✈ SKW5254 ✈ 25-Jun-2013 ✈ KBRO - KIAH

Flight Track Log - Related Links

Times and Time Zones

All times are in EDT time to prevent confusion due to time zone crossing. See the SKW5254 flight status page for this flight to view local times or setup timezone preferences in your user account.

Time Position Orientation Groundspeed Altitude Reporting Facility
EDT Latitude Longitude Course Direction KTS MPH feet Rate Location/Type
06:23AM 25.8994 -97.4156 68° East 136 157 400  Level Houston Center
06:24AM 25.9139 -97.3761 68° East 207 238 2,200 1,800 Climbing Houston Center
06:25AM 25.9761 -97.3831 354° North 259 298 3,900 2,340 Climbing Houston Center
06:26AM 26.0586 -97.3853 359° North 290 334 6,500 2,700 Climbing Houston Center
06:27AM 26.1503 -97.3892 358° North 304 350 9,500 2,400 Climbing Houston Center
06:28AM 26.2375 -97.3911 359° North 313 360 11,400 2,040 Climbing Houston Center
06:29AM 26.3308 -97.3947 358° North 331 381 13,700 1,980 Climbing Houston Center
06:30AM 26.4247 -97.3969 359° North 338 389 15,500 1,320 Climbing Houston Center
06:31AM 26.5228 -97.4108 353° North 363 418 16,500 1,440 Climbing Houston Center
06:32AM 26.6244 -97.4533 340° North 361 415 18,500 1,980 Climbing Houston Center
06:33AM 26.6928 -97.5308 315° West 350 403 20,600 1,620 Climbing Houston Center
06:34AM 26.7750 -97.5808 332° Northwest 373 429 21,800 1,140 Climbing Houston Center
06:35AM 26.8669 -97.5492 17° North 346 398 23,000 1,200 Climbing Houston Center
06:36AM 26.9581 -97.5017 25° Northeast 364 419 24,300 1,140 Climbing Houston Center
06:37AM 27.0481 -97.4567 24° Northeast 347 399 25,400 900 Climbing Houston Center
06:38AM 27.1356 -97.4103 25° Northeast 355 409 26,200 780 Climbing Houston Center
06:39AM 27.2306 -97.3631 24° Northeast 366 421 27,000 360 Climbing Houston Center
06:40AM 27.3300 -97.3114 25° Northeast 385 443 27,000  Level Houston Center
06:41AM 27.4364 -97.2594 23° Northeast 407 468 27,000  Level Houston Center
06:42AM 27.5475 -97.2014 25° Northeast 430 495 27,000  Level Houston Center
06:43AM 27.6600 -97.1456 24° Northeast 440 506 27,000  Level Houston Center
06:44AM 27.7922 -97.0769 25° Northeast 450 518 27,000  Level Houston Center
06:45AM 27.9081 -97.0200 23° Northeast 454 522 27,000  Level Houston Center
06:46AM 28.0242 -96.9600 25° Northeast 457 526 27,000  Level Houston Center
06:47AM 28.1411 -96.8994 25° Northeast 461 531 27,000  Level Houston Center
06:48AM 28.2583 -96.8394 24° Northeast 463 533 27,000  Level Houston Center
06:49AM 28.3756 -96.7800 24° Northeast 463 533 27,000  Level Houston Center
06:50AM 28.4931 -96.7200 24° Northeast 463 533 27,000  Level Houston Center
06:51AM 28.6086 -96.6589 25° Northeast 461 531 27,000  Level Houston Center
06:52AM 28.7256 -96.5978 25° Northeast 462 532 27,000 -660 Level Houston Center
06:53AM 28.8417 -96.5364 25° Northeast 462 532 25,700 -2,100 Descending Houston Center
06:54AM 28.9550 -96.4792 24° Northeast 450 518 22,800 -2,760 Descending Houston Center
06:55AM 29.0619 -96.4222 25° Northeast 432 497 20,100 -2,880 Descending Houston Center
06:56AM 29.1928 -96.3528 25° Northeast 434 499 17,000 -2,940 Descending Houston Center
06:57AM 29.2625 -96.3156 25° Northeast 425 489 15,200 -2,700 Descending Houston Center
06:58AM 29.3700 -96.2247 36° Northeast 421 484 12,100 -2,580 Descending Houston Center
06:59AM 29.4422 -96.1614 37° Northeast 394 453 10,000 -1,080 Descending Houston Center
07:00AM 29.5400 -96.0761 37° Northeast 373 429 10,000  Level Houston Center
07:01AM 29.6125 -95.9933 45° Northeast 374 430 10,000 -420 Level Houston Center
07:02AM 29.6733 -95.9217 46° Northeast 293 337 9,200 -1,140 Descending Houston Center
07:03AM 29.7322 -95.8500 47° Northeast 293 337 7,800 -1,320 Descending Houston Center
07:04AM 29.7872 -95.7833 46° Northeast 284 327 6,600 -1,200 Descending Houston Center
07:05AM 29.8372 -95.7078 53° Northeast 294 338 5,400 -1,140 Descending Houston Center
07:06AM 29.8869 -95.6319 53° Northeast 293 337 4,300 -1,080 Descending Houston Center
07:07AM 29.9422 -95.5436 54° Northeast 273 314 3,000 -1,080 Descending Houston Center